This is the latest recevied weather packets stored in our database for station/object VK3HAG. If no packets are shown the sender has not sent any weather packets the latest 10 day(s).
| Time | Temp. | Humidity | Pressure | Rain* | Wind** | Luminosity | Snow |
|---|---|---|---|---|---|---|---|
| 1778120105 | 10.56° C | 80% | 1020.6 hPa | 0 mm | - | - | - |
| 1778119204 | 10° C | 83% | 1020.6 hPa | 0 mm | - | - | - |
| 1778118304 | 9.44° C | 88% | 1020.7 hPa | 0 mm | - | - | - |
| 1778117405 | 8.89° C | 90% | 1020.8 hPa | 0 mm | - | - | - |
| 1778116505 | 8.33° C | 90% | 1020.9 hPa | 0 mm | - | - | - |
| 1778115605 | 7.78° C | 91% | 1021 hPa | 0 mm | - | - | - |
| 1778114704 | 7.22° C | 90% | 1021 hPa | 0 mm | - | - | - |
| 1778113805 | 7.22° C | 90% | 1021.1 hPa | 0 mm | - | - | - |
| 1778112905 | 7.22° C | 90% | 1020.6 hPa | 0 mm | - | - | - |
| 1778112005 | 6.67° C | 89% | 1020.9 hPa | 0 mm | - | - | - |
| 1778111104 | 7.78° C | 91% | 1020.5 hPa | 0 mm | - | - | - |
| 1778110204 | 6.11° C | 90% | 1020.4 hPa | 0 mm | - | - | - |
| 1778109304 | 6.11° C | 90% | 1020.6 hPa | 0 mm | - | - | - |
| 1778108404 | 6.11° C | 90% | 1020.7 hPa | 0 mm | - | - | - |
| 1778107505 | 6.11° C | 91% | 1019.8 hPa | 0 mm | - | - | - |
| 1778106604 | 5.56° C | 90% | 1019.4 hPa | 0 mm | - | - | - |
| 1778105704 | 5.56° C | 90% | 1019.8 hPa | 0 mm | - | - | - |
| 1778104804 | 5.56° C | 89% | 1019.9 hPa | 0 mm | - | - | - |
| 1778103904 | 5.56° C | 89% | 1019.4 hPa | 0 mm | - | - | - |
| 1778103004 | 5.56° C | 90% | 1019.1 hPa | 0 mm | - | - | - |
| 1778102105 | 5.56° C | 89% | 1018.6 hPa | 0 mm | - | - | - |
| 1778101204 | 5.56° C | 90% | 1018.6 hPa | 0 mm | - | - | - |
| 1778100304 | 5.56° C | 89% | 1018.8 hPa | 0 mm | - | - | - |
| 1778099404 | 5.56° C | 89% | 1018.9 hPa | 0 mm | - | - | - |
| 1778098504 | 5.56° C | 89% | 1018.5 hPa | 0 mm | - | - | - |
* Rain latest hour (hover to see other rain measurements)
** Current wind speed in m/s (hover to see current wind gust speed)